Location: Unspecified
(0.0000°N, 0.0000°E)
Time: 11:41:16
(UTC+00:00)

S-56A Canister/Altair - Pass Details

Date: 31 May 2024
Orbit: 637 x 2489 km, 38.9° (Epoch: 17 June)

Event Time Altitude Azimuth Distance (km) Brightness Sun altitude
Rises 04:01:48 0° 287° (WNW) 6,111 - -26.7°
Exits shadow 04:05:21 - 297° (WNW) 5,641 11.6 -25.9°
Reaches altitude 10° 04:10:37 10° 315° (NW) 5,125 11.5 -24.7°
Maximum altitude 04:14:53 12° 332° (NNW) 4,919 11.6 -23.7°
Drops below altitude 10° 04:19:02 10° 349° (N) 4,935 11.8 -22.8°
Sets 04:27:04 0° 19° (NNE) 5,567 12.6 -20.9°
